Probability
0 0 0 0 0 0 0 0 0 0 0 0 0 0 0 0 0 0 0 1 1 1 0 0 0 0 0 0 0 0 0 0 0 0 0 1 1 1 1 3 5 6 4
0 0 0 0 0 0 0 0 0 0 0 0 0 0 0 0 0 0 0 0 0 0 0 0 0 0 0 0 0 0 0 0 0 0 1 1 1 0 0 2 5 6 4
0 0 0 0 0 0 0 0 0 0 0 0 0 0 0 0 0 0 0 0 0 0 0 0 0 0 0 0 0 0 0 0 0 0 1 2 1 0 0 1 4 4 3
0 0 0 0 0 0 0 0 0 0 0 0 0 0 0 0 0 0 0 0 0 0 0 0 0 0 0 0 0 0 0 0 0 0 1 1 1 1 1 1 1 1 1
0 0 0 0 0 0 0 0 0 0 0 0 0 0 0 0 0 0 0 0 0 0 0 0 0 0 0 0 0 0 0 0 0 0 0 1 1 2 2 1 0 0 0
0 0 0 0 0 0 0 0 0 0 0 0 0 0 0 0 0 0 0 0 0 0 0 0 0 0 0 0 0 0 0 0 0 0 0 1 2 3 3 2 0 0 0
0 0 0 0 0 0 0 0 0 0 0 0 0 0 0 0 0 0 0 0 0 0 0 0 0 0 0 0 0 0 0 0 0 0 0 1 2 2 2 1 0 0 0
0 0 0 0 0 0 0 0 0 0 0 0 0 0 0 0 0 0 0 0 0 0 0 0 0 0 0 0 0 0 0 0 0 0 0 0 1 1 1 1 0 0 0
0 0 0 0 0 0 0 0 0 0 0 0 0 0 0 0 0 0 0 0 0 0 0 0 0 0 0 0 0 0 0 0 0 0 0 0 0 0 0 0 0 0 0
0 0 0 0 0 0 0 0 0 0 0 0 0 0 0 0 0 0 0 0 0 0 0 0 0 0 0 0 0 0 0 0 0 0 0 0 0 0 0 0 0 0 0
0 0 0 0 0 0 0 0 0 0 0 0 0 0 0 0 0 0 0 0 0 0 0 0 0 0 0 0 0 0 0 0 0 0 0 0 0 0 0 0 0 0 0
0 0 0 0 0 0 0 0 0 0 0 0 0 0 0 0 0 0 0 0 0 0 0 0 0 0 0 0 0 0 0 0 0 0 0 0 0 0 0 0 0 0 0
0 0 0 0 0 0 0 0 0 0 0 0 0 0 0 0 0 0 0 0 0 0 0 0 0 0 0 0 0 0 0 0 0 0 0 0 0 0 0 0 0 0 0
0 0 0 0 0 0 0 0 0 0 0 0 0 0 0 0 0 0 0 0 0 0 0 0 0 0 0 0 0 0 0 0 0 0 0 0 0 0 0 0 0 0 0
0 0 0 0 0 0 0 0 0 0 0 0 0 0 0 0 0 0 0 0 0 0 0 0 0 0 0 0 0 0 0 0 0 0 0 0 0 0 0 0 0 0 0
0 0 0 0 0 0 0 0 0 0 0 0 0 0 0 0 0 0 0 0 0 0 0 0 0 0 0 0 0 0 0 0 0 0 0 0 0 0 0 0 0 0 0
0 0 0 0 0 0 0 0 0 0 0 0 0 0 0 0 0 0 0 0 0 0 0 0 0 0 0 0 0 0 0 0 0 0 0 0 0 0 0 0 0 0 0
0 0 0 0 0 0 0 0 0 0 0 0 0 0 0 0 0 0 0 0 0 0 0 0 0 0 0 0 0 0 0 0 0 0 0 0 0 0 0 0 0 0 0
0 0 0 0 0 0 0 0 0 0 0 0 0 0 0 0 0 0 0 0 0 0 0 0 0 0 0 0 0 0 0 1 0 0 0 0 0 0 0 0 0 0 0
0 0 0 0 0 0 0 0 0 0 0 0 0 0 0 0 0 0 0 0 0 0 0 0 0 0 0 0 0 0 0 0 0 0 0 0 0 0 0 0 0 0 0
0 0 0 0 0 0 0 0 0 0 0 0 0 0 0 0 0 0 0 0 0 0 0 0 0 0 0 0 0 0 0 0 0 0 0 0 0 0 0 0 0 0 0
0 0 0 0 0 0 0 0 0 0 0 0 0 0 0 0 0 0 0 0 0 0 0 0 0 0 0 0 0 0 0 0 0 0 0 0 0 0 0 0 0 0 0
1 0 0 0 0 0 0 0 0 0 0 0 0 0 0 0 0 0 0 0 0 0 0 0 0 0 0 0 0 0 0 0 0 0 0 0 0 0 0 0 0 0 0
1 0 0 0 0 0 0 0 0 0 0 0 0 0 0 0 0 0 0 0 0 0 0 0 0 0 0 0 0 0 0 0 0 0 0 0 0 0 0 0 0 0 0
1 0 0 0 0 0 0 0 0 0 0 0 0 0 0 0 0 0 0 0 0 0 0 0 0 0 0 0 0 0 0 0 0 0 0 0 0 0 0 0 0 0 0
0 0 0 0 0 0 0 0 0 0 0 0 0 0 0 0 0 0 0 0 0 0 0 0 0 0 0 0 0 0 0 0 0 0 0 0 0 0 0 0 0 0 0
Wind_Speed
2 1 2 1 1 1 1 1 2 3 4 4 5 5 5 5 6 5 4 9 11 11 12 12 12 12 12 12 13 13 12 12 12 12 12 13 13 12 10 10 11 10 8
2 2 2 2 2 1 2 2 3 3 3 4 4 5 5 4 5 6 5 6 10 11 12 13 13 13 13 13 14 14 13 13 13 13 13 14 14 13 12 12 12 11 9
3 3 2 2 2 2 3 3 4 3 3 4 4 5 5 5 4 5 5 4 5 9 11 13 14 14 14 15 14 14 14 14 14 14 14 14 14 14 14 14 13 12 11
6 4 3 2 3 3 3 3 3 3 3 3 3 4 4 4 5 4 4 4 3 5 7 11 12 13 15 15 15 15 15 15 15 14 14 14 14 14 15 15 14 14 12
5 4 3 3 3 3 3 3 3 3 2 3 3 3 3 4 4 5 5 5 4 4 4 7 11 12 14 16 16 16 15 16 16 15 15 14 14 14 14 15 15 15 14
5 4 3 4 4 3 3 3 3 2 2 2 3 4 3 4 4 5 5 4 4 4 4 5 4 7 13 15 16 16 16 16 16 16 16 16 15 15 15 15 16 15 15
4 3 3 4 3 3 3 4 3 2 2 2 3 3 3 4 4 4 3 3 4 4 5 4 3 3 5 13 15 16 16 16 16 16 16 16 15 15 15 15 15 15 14
4 3 3 3 3 2 3 3 3 2 1 1 2 2 2 3 3 3 3 3 4 4 4 6 5 5 5 4 9 15 15 15 15 15 16 15 15 16 15 15 15 15 14
4 4 4 3 2 2 2 2 2 2 1 1 1 2 2 2 1 2 3 3 4 3 3 4 6 6 6 5 5 10 14 14 14 15 15 15 15 16 16 15 15 15 14
4 4 3 3 3 3 2 2 3 2 2 1 1 1 2 3 3 1 2 3 4 4 4 5 5 6 6 5 7 11 13 13 14 15 15 15 15 15 15 14 15 15 15
3 3 3 3 3 3 3 4 4 3 2 1 1 1 2 2 2 3 2 1 2 3 3 4 4 4 5 5 5 9 12 12 13 14 14 15 14 14 14 14 14 14 14
2 3 3 3 3 3 3 3 3 3 2 3 2 2 2 2 1 2 2 2 2 1 3 3 4 4 4 4 7 11 11 12 13 13 14 14 14 14 14 14 13 13 13
2 2 3 3 3 3 3 3 3 2 3 3 3 2 2 2 2 2 3 2 2 1 3 3 3 3 4 3 4 9 10 11 12 12 13 13 14 14 14 14 14 13 13
2 3 3 3 3 3 3 3 2 3 3 3 4 4 3 3 3 2 2 2 2 2 3 2 2 3 2 3 4 6 5 9 10 11 12 12 13 13 13 14 14 14 14
3 4 4 3 3 3 3 3 3 4 4 4 4 4 3 3 3 3 2 2 3 2 1 1 2 2 2 2 3 3 3 7 9 10 11 11 12 12 12 13 13 14 14
3 3 3 4 3 3 4 4 3 3 4 3 3 4 4 3 3 3 3 2 2 3 2 1 1 1 2 3 4 3 4 7 8 8 9 10 11 11 12 13 13 13 13
3 3 2 3 4 3 4 3 3 2 3 2 3 4 4 3 3 3 3 3 3 3 3 1 1 1 3 3 2 2 3 3 3 7 7 8 9 9 10 11 12 12 12
3 3 3 3 3 3 4 4 3 3 3 3 3 3 3 3 3 3 2 3 2 3 3 2 1 1 2 2 1 1 2 3 2 5 6 6 7 7 8 9 10 10 11
2 3 3 3 3 3 3 3 3 3 3 3 3 3 3 4 3 2 3 3 2 2 2 2 1 1 1 1 2 2 2 2 2 4 5 4 5 5 6 6 7 8 8
2 2 3 3 3 3 3 3 3 3 3 3 3 4 4 4 4 3 3 3 3 2 2 2 1 1 1 1 2 1 1 1 1 2 3 2 3 4 4 4 5 5 6
3 2 2 3 3 3 3 3 2 2 3 3 4 4 5 7 8 5 4 3 3 2 2 2 1 1 1 2 1 1 1 1 2 1 1 1 1 1 1 2 3 3 4
2 3 3 3 4 3 6 6 4 3 2 3 3 3 4 5 5 6 7 6 5 3 2 1 1 1 1 1 1 1 1 2 2 2 1 1 1 0 0 0 1 1 1
3 3 3 3 3 4 5 4 4 2 2 2 2 2 2 4 4 2 2 2 3 3 2 2 1 1 1 1 1 1 1 1 1 2 1 2 1 1 1 0 1 1 1
3 3 3 3 3 3 3 2 1 1 1 1 1 1 2 3 2 3 1 1 1 1 1 2 2 1 1 1 1 1 1 1 1 1 1 1 2 1 2 1 3 2 2
4 4 3 3 3 3 4 3 2 1 1 1 1 2 2 3 3 4 2 1 1 0 1 3 3 2 1 1 1 2 2 1 1 2 0 0 1 2 2 1 2 3 3
4 4 3 3 4 4 5 5 4 1 2 1 1 2 3 4 3 3 1 1 0 1 0 1 1 2 3 2 2 1 1 0 0 2 1 1 1 1 3 2 1 2 3
Wind_Direction
64 79 94 81 62 65 74 49 56 53 39 42 56 57 61 73 89 95 82 75 72 68 64 60 57 54 50 46 43 41 38 36 34 31 29 26 22 20 21 24 27 30 41
79 59 74 64 68 66 50 58 70 63 59 47 50 55 55 69 93 107 108 83 74 70 66 62 58 55 51 47 44 42 40 38 37 35 34 32 28 30 33 35 35 37 50
74 65 59 57 47 63 66 49 55 54 68 65 54 60 51 46 71 93 111 109 90 72 68 65 60 56 52 48 45 43 41 39 38 37 37 36 34 38 40 39 40 42 53
74 56 49 53 55 49 70 71 55 56 57 63 53 52 57 41 51 72 89 96 99 94 75 71 64 58 54 48 45 44 43 42 39 38 39 39 38 41 41 43 45 46 52
65 65 48 49 52 44 49 74 60 59 63 70 87 68 57 49 42 52 62 74 78 94 101 82 72 62 56 49 45 42 43 43 41 41 42 43 43 44 44 47 48 48 50
53 53 55 55 56 51 47 70 80 66 64 51 70 75 61 61 52 45 47 55 62 78 90 94 83 68 62 52 44 41 41 43 44 44 46 47 45 43 45 48 49 50 51
56 59 63 57 55 57 59 68 70 69 63 80 73 66 54 55 64 56 44 43 53 57 64 71 69 69 65 55 43 40 39 43 44 45 46 47 45 44 46 48 50 51 53
42 59 70 81 76 67 61 70 69 57 36 83 101 104 86 36 27 45 51 48 49 46 49 60 63 66 61 57 42 37 34 38 43 45 46 46 45 45 46 48 49 50 53
39 38 45 60 75 86 80 80 80 79 53 17 74 105 118 136 90 20 44 57 53 47 46 50 58 65 68 60 46 33 35 34 40 44 46 48 48 46 46 49 50 49 51
52 37 37 41 59 70 71 66 74 71 80 29 20 44 107 130 128 101 28 46 56 55 49 54 55 58 62 62 54 41 39 37 40 44 46 48 49 48 47 49 51 51 53
63 46 39 35 57 66 67 61 55 36 56 54 54 48 42 50 74 110 108 59 47 44 57 57 60 59 60 60 58 44 43 42 41 42 44 46 47 48 47 49 50 51 53
85 68 58 42 48 56 62 69 75 58 47 41 42 64 79 79 81 96 117 118 93 63 70 62 60 64 67 62 58 49 48 46 45 43 42 43 45 46 46 48 49 50 53
102 82 77 61 56 55 59 59 57 70 64 59 49 44 45 67 86 93 104 112 107 96 78 61 60 62 67 72 66 54 54 51 48 46 44 43 43 43 44 44 47 51 54
115 106 91 81 72 68 63 55 49 54 65 67 67 58 51 46 56 81 104 113 98 64 63 68 55 63 60 71 74 64 60 59 55 49 46 44 43 42 43 44 47 50 52
123 111 110 100 77 66 66 62 57 56 51 45 61 63 58 49 45 47 64 89 113 108 69 50 57 53 68 73 74 77 73 65 65 58 52 48 45 43 43 45 47 48 49
109 126 130 125 115 95 78 66 63 66 78 63 67 66 56 52 48 42 43 48 73 113 108 71 90 86 69 80 80 86 89 76 73 68 58 52 47 45 46 46 47 48 47
138 134 131 122 119 116 107 93 91 73 84 90 85 85 75 56 56 42 39 50 57 83 101 76 92 89 76 73 49 63 110 93 80 77 71 61 54 49 48 49 49 48 47
139 131 117 109 104 98 101 102 97 84 69 72 78 91 95 83 67 49 46 58 63 78 102 113 86 66 79 93 71 46 81 95 104 95 90 77 68 60 55 54 53 51 49
140 138 126 119 116 118 122 124 112 103 90 77 68 71 79 83 76 65 63 61 51 69 83 97 83 65 68 70 53 32 58 61 100 110 100 86 80 73 65 61 60 54 49
142 130 122 122 117 110 103 106 110 110 104 97 81 67 56 61 60 55 61 57 56 55 67 77 78 65 57 44 68 39 21 10 44 70 62 85 85 79 73 68 70 60 51
137 122 113 105 94 85 67 64 72 100 105 100 93 92 86 85 76 67 63 51 52 50 54 64 62 49 35 38 26 353 37 3 12 39 34 23 81 70 50 58 75 64 55
123 110 99 92 92 86 79 66 54 33 78 108 119 125 124 110 100 90 83 77 75 72 61 48 36 62 38 47 37 24 42 31 340 328 22 320 71 65 199 136 119 90 54
118 109 104 100 104 107 104 85 63 28 32 67 90 115 124 126 132 132 122 108 68 65 91 109 75 24 37 24 56 15 9 15 250 252 41 318 335 345 310 62 157 220 256
142 138 138 132 127 134 139 127 95 328 349 63 97 115 113 119 122 111 123 139 127 72 110 111 109 79 76 35 70 198 242 298 307 310 89 311 312 311 312 285 227 234 257
160 159 157 158 156 160 177 173 164 238 222 205 149 91 97 102 109 103 85 108 120 152 136 143 147 155 131 1 23 37 9 30 324 302 341 119 299 313 301 278 254 258 276
162 158 162 170 175 173 183 185 188 221 224 198 148 118 107 118 108 110 106 83 156 252 144 126 218 250 242 249 245 182 185 184 284 302 310 60 309 351 319 294 291 284 285